Regional Weather Roundup
Issued by NWS

Home | Current Version | Previous Version | Graphics & Text | Print | Product List | Glossary On
Versions: 1 2 3 4 5 6 7 8 9 10 11 12 13 14 15 16 17 18 19 20 21 22 23 24 25 26 27 28 29 30 31 32 33 34 35 36 37 38 39 40 41 42 43 44 45 46 47 48 49 50
000
ASUS43 KMKX 290310
RWRWI

WISCONSIN REGIONAL WEATHER ROUNDUP
NATIONAL WEATHER SERVICE MILWAUKEE/SULLIVAN WI
1000 PM CDT SAT MAR 28 2015

NOTE: "FAIR" INDICATES FEW OR NO CLOUDS BELOW 12,000 FEET WITH NO
SIGNIFICANT WEATHER AND/OR OBSTRUCTIONS TO VISIBILITY.

WIZ001-002-006>008-014>016-023>028-290400-
NORTHWEST WISCONSIN

CITY           SKY/WX    TMP DP  RH WIND       PRES   REMARKS
SUPERIOR ARPT  CLEAR     36  16  44 SW12      29.96F WCI  27
ASHLAND        MOCLDY    36  10  34 S13       30.00F WCI  27
HAYWARD        PTCLDY    34  12  40 S14       30.01F WCI  25
SIREN          MOCLDY    34  18  51 S10       30.00F WCI  26
CUMBERLAND     PTCLDY    32  18  55 S14       30.03F WCI  22
RICE LAKE      PTCLDY    33  16  49 SE12      30.06F WCI  24
CHETEK         PTCLDY    33  16  49 SE8       30.06F WCI  26
LADYSMITH      MOCLDY    33  14  46 S10       30.08F WCI  25
EAU CLAIRE     PTCLDY    34  13  41 S10       30.08F WCI  26
MENOMONIE      CLEAR     32  18  57 SE8       30.08F WCI  25
NEW RICHMOND   PTCLDY    33  20  57 S13G18    30.03F WCI  24
OSCEOLA        MOCLDY    34  21  60 SE16      30.04F WCI  23
$$

WIZ003>005-009-010-017-018-290400-
NORTH CENTRAL WISCONSIN

CITY           SKY/WX    TMP DP  RH WIND       PRES   REMARKS
MANITOWISH WTR MOCLDY    30  12  46 S7        30.02F WCI  24
ARBOR VITAE    MOCLDY    32  12  44 S9        30.04S WCI  24
WOODRUFF       MOCLDY    32  12  44 S9        30.04S WCI  24
RHINELANDER    MOCLDY    32  11  41 SW10      30.07F WCI  24
EAGLE RIVER    PTCLDY    31   8  38 S6        30.04F WCI  25
LAND O LAKES   PTCLDY    32  11  41 S7        30.03F WCI  26
PHILLIPS       MOCLDY    32  12  43 CALM      30.04F
TOMAHAWK       MOCLDY    32  13  46 CALM      30.08S
MEDFORD        MOCLDY    31  16  53 S9        30.09F WCI  23
MERRILL        MOCLDY    33  14  45 SW9G16    30.10F WCI  25
$$

WIZ029-030-035-036-043>047-290400-
CENTRAL WISCONSIN

CITY           SKY/WX    TMP DP  RH WIND       PRES   REMARKS
WAUSAU         PTCLDY    33  13  43 SW12      30.10F WCI  24
MOSINEE        CLEAR     28  14  54 S7        30.14S WCI  21
MARSHFIELD     CLEAR     31  13  47 SW9       30.13S WCI  23
STEVENS POINT  CLEAR     30  11  45 S10       30.16S WCI  21
WAUPACA        CLEAR     31  14  49 S6        30.19S WCI  25
WAUTOMA        CLEAR     30  12  47 S5        30.20S WCI  25
WISC RAPIDS    CLEAR     30  10  43 S8        30.17S WCI  22
CAMP DOUGLAS   MOCLDY    30  15  53 SE3       30.16F
$$

WIZ011>013-019>022-031-037>040-048>050-290400-
NORTHEAST WISCONSIN

CITY           SKY/WX    TMP DP  RH WIND       PRES   REMARKS
ANTIGO         PTCLDY    31  15  51 SW12      30.10F WCI  21
SHAWANO        CLEAR     34  15  45 SW5       30.16S WCI  30
OCONTO         FAIR      30  23  76 S8        30.17F WCI  22
STURGEON BAY   PTCLDY    28  18  64 S14       30.20F WCI  17
GREEN BAY      PTCLDY    30  22  72 S12       30.19F WCI  20
MANITOWOC      CLEAR     28  21  75 S9        30.23F WCI  19
APPLETON       PTCLDY    30  12  47 SW12      30.19S WCI  21
CLINTONVILLE   CLEAR     32  16  51 S9        30.17R WCI  24
OSHKOSH        CLEAR     29  15  56 SW8       30.20S WCI  21
$$

WIZ032>034-041-042-053>061-290400-
SOUTHWEST WISCONSIN

CITY           SKY/WX    TMP DP  RH WIND       PRES   REMARKS
LA CROSSE      CLEAR     36  15  42 S10       30.14F WCI  28
SPARTA         CLEAR     32  15  49 S7        30.16F WCI  25
VIROQUA        CLEAR     31  17  55 S8        30.14F WCI  24
BOSCOBEL       CLEAR     35  14  42 S7        30.20S WCI  29
PRAIRIE DU CHI CLEAR     33  14  44 SE5       30.19S WCI  29
PLATTEVILLE    CLEAR     30  18  60 SE8       30.20S WCI  22
$$

WIZ056-057-062-063-064-067-068-290400-
SOUTH CENTRAL WISCONSIN

CITY           SKY/WX    TMP DP  RH WIND       PRES   REMARKS
REEDSBURG      CLEAR     30  15  53 S5        30.18S WCI  25
BARABOO/DELLS  CLEAR     29  16  58 S8        30.18S WCI  21
LONE ROCK      CLEAR     27  16  63 CALM      30.21S
MINERAL POINT  CLEAR     32  14  47 S8        30.19S WCI  25
MADISON        PTCLDY    33  14  45 S7        30.21S WCI  27
MIDDLETON      CLEAR     32  14  48 S6        30.22S WCI  26
WATERTOWN      CLEAR     28  16  59 S5        30.22S WCI  23
MONROE         CLEAR     32  19  59 S8        30.21F WCI  25
JANESVILLE     CLEAR     32  14  47 S5        30.23S WCI  27
$$

WIZ051-052-058>065-066-070>072-290400-
SOUTHEAST WISCONSIN

CITY           SKY/WX    TMP DP  RH WIND       PRES   REMARKS
MILWAUKEE      CLEAR     26  13  57 S8        30.26F WCI  18
WAUKESHA       CLEAR     27  12  54 S7        30.25F WCI  19
MILWAUKEE/TIMM CLEAR     28  10  47 S12       30.25F WCI  18
RACINE         CLEAR     27  14  58 S6        30.29S WCI  20
BURLINGTON     CLEAR     25  12  57 S7        30.25F WCI  17
KENOSHA        CLEAR     24  14  65 S6        30.27F WCI  17
FOND DU LAC    CLEAR     28  16  60 S6        30.21S WCI  22
SHEBOYGAN      CLEAR     25  19  78 S8        30.23F WCI  16
WEST BEND      CLEAR     27  14  59 S7        30.23S WCI  19
JUNEAU         CLEAR     28  15  58 S8        30.23R WCI  20
$$

LSZ147-162-290400-
LAKE SUPERIOR

STATION/POSITION TIME  TEMP    WIND        PRES    WAVE
                       AIR SEA DIR/SP/G            HT/PER
                 (UTC) (F)     (DEG/KT/KT) (MB)    (FT/S)
DEVILS ISLAND    0300   38     200/ 13/ 16 1015.6F
PORT WING        0200   38     190/  7/ 15 1015.9F
SAXON HARBOR     0200   38      CALM  /  8 1016.6S
$$

LMZ867-665-643>646-290400-
LAKE MICHIGAN

STATION/POSITION TIME  TEMP    WIND        PRES    WAVE
                       AIR SEA DIR/SP/G            HT/PER
                 (UTC) (F)     (DEG/KT/KT) (MB)    (FT/S)
NORTHPORT PIER   0200   30     170/  7/ 16 1022.0F
KEWAUNEE LAKESHO 0200   30     200/ 14/ 18 1022.5S
SHEBOYGAN LAKESH 0300   31     190/ 20/ 23 1024.7F
PORT WASHINGTON  0200   31     190/ 12/ 16 1025.4R
MILWAUKEE LAKESH 0200   29     200/  8/ 11   N/A
KENOSHA   LAKESH 0300   29     190/  7/ 11 1025.4S
$$

TC  - TEMPERATURE IN CELSIUS
VSB - VISIBILITY IN STATUTE MILES
WCI - WIND CHILL INDEX
HX  - HEAT INDEX



USA.gov is the U.S. government's official web portal to all federal, state and local government web resources and services.